Content
SEND FEEDBACK

Daily
Averages
Monthly
Summary
United States of America

BARD, CALIFORNIA


Home > North America > United States > California
Elevation: 301 feet     Latitude: 32 50N     Longitude: 114 24W

WEATHER
 
SELECT A DAY
Number of Records: 155,951;   Date Range: 7/1/96 - 12/18/14
 
SHARE

PRINT THIS DATA

[ ← Previous Day ]
WEATHER ALMANAC - FEBRUARY 13, 2013
[ Next Day → ]
[ °C ]   °F
Weather ElementAverageHighLow
Temperature55.2 °F69.1 °F (3:55 pm)41 °F (4:55 am)
Dewpoint20.2 °F27 °F (11:55 pm)15.1 °F (10:55 am)
Humidity28 %51 % (4:55 am)15 % (1:55 pm)
Barometer30.17 in30.24 in (8:55 am)30.10 in (5:55 pm)
Wind Speed5 mph15 mph (11:55 am)
Wind Gust20.7 mph (12:55 pm)
Weather ElementAverage
Visibility10 mi
Wind DirectionESE (117.5 °)

Weather ElementTotal
Precipitation---
Heating Degree Days10 (Base 65)
Growing Degree Days5.1 (Base 50)
Averaged from 24 records on February 13, 2013
WEATHER CONDITIONS BREAKOUT
WIND DIRECTION BREAKOUT
WEATHER BY HOUR - FEBRUARY 13, 2013
[ °C ]   °F
Local TimeTemperatureDewpointHumidityBarometerVisibilityWind DirectionWind SpeedGust SpeedPrecipitationEventsConditions
12:55 AM45.0 °F19.0 °F36 %30.23 in10.0 miCalmClear
1:55 AM44.1 °F19.9 °F38 %30.23 in10.0 miCalmClear
2:55 AM43.0 °F21.0 °F42 %30.21 in10.0 miCalmClear
3:55 AM43.0 °F21.0 °F42 %30.20 in10.0 miCalmClear
4:55 AM41.0 °F24.1 °F51 %30.20 in10.0 miCalmClear
5:55 AM41.0 °F19.0 °F41 %30.21 in10.0 miCalmClear
6:55 AM41.0 °F18.0 °F40 %30.21 in10.0 miNorth (360°)4.6 mphClear
7:55 AM45.0 °F17.1 °F33 %30.22 in10.0 miNNE (20°)5.8 mphClear
8:55 AM52.0 °F17.1 °F25 %30.24 in10.0 miNNE (30°)6.9 mphClear
9:55 AM57.0 °F18.0 °F22 %30.24 in10.0 miNorth (350°)4.6 mphClear
10:55 AM61.0 °F15.1 °F17 %30.24 in10.0 miNorth (350°)9.2 mphClear
11:55 AM64.0 °F16.0 °F16 %30.22 in10.0 miNorth (10°)15.0 mphClear
12:55 PM66.0 °F18.0 °F16 %30.20 in10.0 miNorth (350°)15.0 mph20.7 mphClear
1:55 PM66.9 °F18.0 °F15 %30.16 in10.0 miNorth (10°)9.2 mphClear
2:55 PM68.0 °F19.0 °F15 %30.14 in10.0 miNNW (340°)13.8 mph19.6 mphClear
3:55 PM69.1 °F19.0 °F15 %30.12 in10.0 miNorth (360°)11.5 mph19.6 mphClear
4:55 PM69.1 °F19.0 °F15 %30.11 in10.0 miNNE (20°)10.4 mph18.4 mphClear
5:55 PM68.0 °F21.0 °F17 %30.10 in10.0 miNorth (360°)6.9 mphClear
6:55 PM63.0 °F21.0 °F20 %30.10 in10.0 miNorth (10°)4.6 mphClear
7:55 PM61.0 °F21.9 °F22 %30.11 in10.0 miCalmClear
8:55 PM55.9 °F25.0 °F30 %30.12 in10.0 miWSW (250°)3.5 mphClear
9:55 PM55.9 °F25.0 °F30 %30.11 in10.0 miCalmClear
10:55 PM53.1 °F26.1 °F35 %30.12 in10.0 miCalmClear
11:55 PM51.1 °F27.0 °F39 %30.12 in10.0 miCalmClear
Hourly data recorded from KNYL, located miles away from Bard, California







STORIES FROM OUR PARTNERS